Tracking 18945 objects as of 21-Jan-2018
HD Live streaming from Space Station
objects crossing your sky now

ARIANE 5 DEB (SYLDA)

Track ARIANE 5 DEB (SYLDA) now!
10-day predictions


NORAD ID: 39081
Int'l Code: 2013-006D
Perigee: 228.9 km
Apogee: 25,892.9 km
Inclination: 6.0 °
Period: 449.3 minutes
Semi major axis: 19431 km
RCS: 0.003 m2 (small)
Launch date: February 7, 2013
Source: France (FR)
Launch site: FRENCH GUIANA (FRGUI)

Note: This is SATELLITE DEBRIS
aabbcc
Your satellite tracking list
Your tracking list is empty




NASA's NSSDC Master Catalog

Two Line Element Set (TLE):
1 39081U 13006D   18020.40218073  .00079528  00000-0  68973-2 0  9993
2 39081   5.9783  69.9455 6603589 232.5392  47.3393  3.20501633 49315
Source of the keplerian elements: AFSPC